Weather in Mashhad

Iran     36°17′57″N   59°35′32″E
temp.,
°C
wind,
m/s
gust,
m/s
humid.,
%
clouds,
%
prec.,
mm/h
press.,
hPa
HPBL,
m
27 october, wed
wed2700:30+8s343514 0.0 1024156
03:30+7s233882 0.0 1024115
06:30+7s234757 0.0 1025118
09:30+9ese3352100 0.0 1026690
12:30+11ene2247100 0.0 10241176
15:30+10nnw545088 0.0 1025762
18:30+9e2249100 0.0 1026763
21:30+5se228355 0.0 1029293
28 october, thu
thu2800:30+4se117923 0.0 1028373
03:30+4e117734 0.1 1028289
06:30+4ese127764 0.0 1028474
09:30+7ese326758 0.0 1027798
12:30+10e33480 0.0 1024875
15:30+11e32463 0.0 1023739
18:30+7sse45680 0.0 1026272
21:30+5s45770 0.0 1027242
29 october, fri
fri2900:30+5sse22735 0.0 1026140
03:30+4e00740 0.0 102687
06:30+5nne00630 0.0 102665
09:30+11ene11400 0.0 1025441
12:30+14ne22300 0.0 1023652
15:30+15ene21275 0.0 1023329
18:30+12s23340 0.0 102583
21:30+11sse22405 0.0 102572
30 october, sat
sat3000:30+10nw224425 0.0 102613
03:30+10nw124312 0.0 102611
06:30+10wnw114215 0.0 102710
09:30+16e112810 0.0 1027397
12:30+19ene332122 0.0 1024824
15:30+19ese332211 0.0 1024488
18:30+15s332997 0.0 102662
21:30+14s223225 0.0 102612
31 october, sun
sun3100:30+12sse11363 0.0 102612
03:30+11n004039 0.0 102710
06:30+11e11418 0.0 102913
09:30+15ese33315 0.0 1029622
12:30+16ese442686 0.0 1027901
15:30+16se55265 0.0 1026907
18:30+11sse5736100 0.0 1029286
21:30+10s353849 0.0 1030163